SCP
1 1 1 2 2 1 0 0 0 0 0 0 0 0 0 0 0 0 1 1 1 1 1 1 1 1 1 1 1 1 1 1 2 2 2 2 2 2 1 1 1 1 1 1 1 1 1 1 1
1 1 2 2 1 1 0 0 0 0 0 0 0 0 0 0 0 1 1 1 1 1 1 1 1 1 1 1 1 1 1 1 1 2 2 2 2 2 2 2 1 1 1 1 1 1 1 1 1
1 1 2 2 1 0 0 0 0 0 0 0 0 0 1 1 1 1 1 1 1 1 1 1 1 1 2 2 2 2 1 1 1 1 2 1 2 2 2 2 2 1 1 1 1 1 1 1 1
1 2 2 1 0 0 0 0 1 1 1 1 1 1 1 1 1 1 1 1 1 0 0 1 1 1 1 2 2 2 1 1 1 1 2 1 1 1 1 1 1 1 1 1 1 1 1 1 1
1 2 1 1 0 0 0 0 1 1 1 1 1 1 2 1 1 1 1 1 0 0 0 0 1 1 1 2 2 2 1 1 1 1 2 2 1 1 1 1 1 1 1 1 1 1 1 1 1
1 1 1 0 0 0 0 0 1 1 1 1 1 1 2 1 1 1 0 0 0 0 0 0 1 1 1 2 2 2 1 1 1 1 1 1 1 1 1 1 1 1 1 1 1 1 1 1 1
1 1 0 0 0 0 0 0 1 1 1 1 1 1 1 1 1 1 0 0 0 0 0 0 1 1 1 1 2 1 1 1 1 1 1 1 1 1 1 1 1 1 1 1 1 1 1 1 1
1 1 0 0 0 0 0 1 1 1 1 1 1 1 1 1 1 1 1 0 0 0 1 1 1 1 1 1 1 1 1 1 1 1 1 1 1 1 1 1 1 1 1 1 1 1 1 1 1
1 1 0 0 0 0 0 0 1 1 1 1 0 0 1 1 1 1 1 1 1 1 1 1 0 1 1 1 1 1 1 1 1 1 1 1 1 1 1 1 1 1 1 1 1 1 1 1 1
1 0 0 0 0 0 0 0 0 1 1 1 1 0 1 1 1 1 1 1 1 1 1 1 1 1 1 1 1 1 1 1 1 1 1 1 1 1 1 1 1 1 1 1 1 1 1 1 1
0 0 0 0 0 0 0 0 0 0 1 1 1 1 1 1 1 1 1 1 1 1 1 1 1 1 1 1 1 1 1 1 1 1 1 1 1 1 1 1 1 1 1 1 1 1 1 1 1
0 0 0 0 0 0 0 0 0 0 0 1 1 1 1 1 1 1 1 1 1 1 1 1 1 1 1 1 1 1 1 1 1 1 1 1 1 1 1 1 1 1 1 1 1 1 1 1 1
1 1 0 0 0 0 0 0 0 1 1 1 1 1 1 0 0 1 1 1 1 1 1 1 1 1 1 1 1 1 1 1 1 1 1 1 1 1 1 2 2 2 1 1 1 1 1 1 1
1 1 1 0 0 0 0 0 1 1 1 1 1 1 1 1 1 1 1 1 1 1 1 1 1 1 1 1 1 1 1 1 1 1 1 1 1 1 2 2 2 1 1 1 1 1 1 1 1
0 0 1 1 1 0 0 0 1 1 1 1 1 1 1 1 1 1 1 2 2 2 2 2 1 1 2 2 2 2 1 1 1 1 1 1 1 1 1 1 1 1 1 1 1 1 1 1 1
0 0 0 1 1 1 0 0 1 1 2 2 2 2 1 1 1 2 3 3 3 4 4 3 2 2 2 2 2 2 1 1 1 1 1 1 1 1 1 1 1 1 1 1 1 1 1 1 1
0 0 0 0 0 1 0 0 1 1 2 2 2 2 1 2 2 3 4 4 5 5 5 4 3 2 2 2 2 1 1 1 1 1 1 1 1 1 1 1 1 1 1 1 1 1 1 1 1
0 0 0 0 0 0 0 0 1 1 2 2 2 2 2 2 3 3 4 4 4 4 4 3 2 2 2 1 1 1 1 1 1 1 1 1 1 1 1 1 1 1 1 1 1 1 1 1 1
0 0 0 0 0 0 0 0 1 1 2 2 2 2 2 2 3 3 3 3 3 3 3 3 2 2 2 2 2 2 2 2 2 2 2 1 1 1 1 1 1 1 1 1 1 1 1 1 1
0 0 0 0 0 0 0 0 1 1 2 2 2 2 2 2 2 2 2 2 3 3 3 3 3 3 2 2 2 3 3 3 3 2 2 1 1 1 1 1 1 2 2 2 1 1 1 1 1
0 0 0 0 0 0 0 1 1 1 2 2 2 1 2 2 2 2 3 3 3 3 4 4 4 3 2 2 2 3 4 4 3 2 2 1 1 1 1 1 1 2 2 2 1 1 1 1 1
0 0 0 0 0 0 0 1 1 2 2 2 2 2 2 2 2 3 3 3 3 3 4 6 5 3 3 2 2 3 4 4 3 2 2 1 1 1 1 1 1 2 2 2 1 1 1 1 1
0 0 0 0 0 0 0 1 1 2 2 2 3 3 3 3 3 3 3 3 3 3 5 7 6 4 3 3 4 5 5 4 3 2 2 2 1 1 1 1 1 1 2 2 1 1 1 1 1
0 0 0 0 0 0 0 1 1 2 2 3 4 4 3 3 3 3 4 4 4 4 6 7 6 4 3 4 5 6 5 3 2 2 2 2 1 1 1 1 1 1 2 2 2 2 1 1 1
0 0 0 0 0 0 0 1 1 2 2 2 3 3 3 3 3 3 4 4 4 4 6 6 5 4 4 4 4 5 3 2 1 2 2 2 1 1 1 1 1 1 1 2 2 2 2 2 2
0 0 0 0 0 0 0 1 1 1 1 1 2 2 2 3 3 3 3 3 3 4 4 5 5 4 4 4 4 4 3 2 2 2 2 2 2 2 2 2 2 2 2 2 2 2 2 2 3
0 0 0 0 0 0 0 1 1 1 1 1 1 2 2 3 3 3 3 3 3 3 3 3 4 4 4 4 4 4 3 2 2 2 2 2 2 2 2 2 2 2 2 3 3 3 3 3 4
0 0 0 0 0 0 0 1 1 1 1 1 2 2 3 3 3 3 3 3 3 3 3 3 3 4 4 4 3 3 2 2 2 2 2 2 2 3 3 2 2 2 3 3 3 3 4 4 5
0 0 0 0 0 0 0 0 1 1 1 1 2 3 4 4 4 3 3 3 3 3 3 3 3 4 4 3 3 2 2 2 2 2 2 2 3 3 3 2 2 2 2 3 3 3 4 4 5
0 0 0 0 0 0 0 0 1 1 1 2 3 4 5 5 4 4 4 4 3 3 3 3 3 4 3 3 3 2 2 3 3 3 2 2 2 2 2 2 2 2 2 3 3 3 4 4 4
Wind_Speed
11 9 5 5 6 2 10 9 8 8 8 8 8 7 8 9 9 8 6 5 4 4 6 6 5 4 4 5 5 5 5 5 4 4 4 4 4 5 6 6 6 6 7 7 7 7 7 8 9
8 5 5 6 2 6 10 9 9 9 8 6 7 7 8 10 9 7 5 5 4 5 5 6 5 4 5 5 5 4 5 5 4 4 4 5 5 6 7 7 6 6 6 6 7 7 7 7 8
6 6 6 3 5 8 10 9 9 8 6 4 6 7 7 8 6 5 6 5 5 5 5 7 5 5 5 5 5 4 5 5 5 5 5 6 6 6 6 6 6 6 6 6 6 6 6 6 7
5 6 5 1 10 10 8 7 6 7 7 6 5 7 8 7 5 6 6 5 5 5 5 8 5 5 5 5 4 4 5 5 5 5 5 6 6 6 6 6 6 5 5 5 5 5 5 6 6
5 5 2 6 10 9 7 6 4 6 6 7 6 9 9 7 7 8 7 5 5 6 6 8 6 5 5 5 4 4 4 5 6 5 5 5 5 5 5 5 5 4 4 4 4 3 4 5 5
5 4 2 8 10 8 7 5 4 7 7 6 6 8 8 7 7 7 7 6 6 5 5 7 8 6 5 4 5 4 4 4 5 5 5 5 5 5 5 4 4 3 4 3 3 3 3 4 5
4 2 6 7 8 8 6 4 5 6 6 6 4 6 8 7 7 6 6 5 5 5 4 4 4 6 6 5 4 4 3 3 4 4 4 4 4 4 3 3 3 3 3 3 2 2 2 2 3
4 2 5 7 7 8 6 4 5 5 7 6 3 5 7 7 6 6 6 5 5 5 5 3 4 4 3 5 5 3 3 2 3 3 3 2 3 4 3 3 3 2 2 2 2 1 2 2 2
4 1 6 7 7 7 5 5 6 4 7 6 6 7 9 9 7 6 6 5 5 4 3 3 4 3 2 3 4 4 4 3 2 3 3 2 1 2 3 4 3 2 2 2 1 1 2 3 4
3 3 8 6 5 6 6 4 5 5 6 7 8 9 9 9 7 6 5 5 4 3 3 4 3 3 2 2 2 1 2 2 1 1 1 1 1 0 1 5 2 1 1 2 2 3 5 6 3
2 5 6 5 5 4 5 5 3 3 5 5 7 9 9 8 6 5 5 4 4 3 3 3 3 2 2 2 1 1 1 1 2 2 1 1 0 1 0 1 2 2 3 2 3 3 1 0 0
3 4 4 4 4 4 5 5 5 5 6 6 7 9 8 7 6 4 4 4 4 3 3 3 3 3 2 2 1 1 1 1 2 2 1 1 1 1 1 0 0 0 0 0 0 0 1 1 0
3 4 5 5 4 5 5 5 5 7 6 7 8 8 7 6 5 4 4 4 3 3 3 3 2 2 2 1 1 2 2 2 2 1 2 1 1 1 1 1 1 1 0 0 0 0 1 1 1
3 2 4 5 5 4 4 5 4 7 6 7 7 7 7 5 5 4 4 3 3 2 3 3 2 3 1 1 1 1 1 1 2 2 2 2 1 1 1 0 1 1 1 1 1 0 0 1 1
2 3 4 4 3 3 2 4 5 6 6 7 7 6 5 5 4 3 3 3 3 2 2 2 2 2 2 1 1 1 1 1 1 2 2 2 2 2 1 1 1 1 1 0 0 0 0 1 0
4 3 3 4 2 2 3 4 6 6 6 6 6 6 5 4 4 3 3 2 2 3 3 2 1 2 2 1 1 1 1 1 1 1 2 2 3 2 2 2 2 2 1 1 0 0 0 0 1
3 1 2 4 2 1 3 3 6 5 6 6 6 6 5 5 4 4 3 3 3 3 2 2 2 2 1 2 1 1 1 1 1 1 2 2 2 2 2 2 2 2 1 1 1 1 1 1 1
1 1 1 1 3 2 2 1 4 5 6 6 6 6 5 5 5 5 4 4 3 3 2 2 2 2 1 1 1 0 1 1 1 2 2 2 2 2 3 1 2 2 1 1 2 2 1 1 2
2 2 1 1 1 3 3 2 2 5 6 6 6 6 6 5 5 5 5 4 4 3 3 2 2 2 1 0 0 0 1 1 1 1 2 2 2 2 2 3 1 2 2 2 1 1 1 1 1
3 3 1 1 1 3 3 4 2 4 6 6 6 6 7 6 6 5 5 5 5 4 3 3 3 2 1 0 0 1 1 0 1 1 2 2 2 2 1 3 2 2 1 1 2 1 2 1 1
4 4 2 2 2 5 6 5 4 5 5 6 6 6 6 6 6 6 6 5 5 4 4 3 2 2 1 0 1 0 0 0 1 1 1 2 2 2 3 2 3 2 2 1 2 2 2 2 1
4 1 3 4 6 2 5 4 3 4 5 5 6 6 6 6 6 6 7 6 6 5 4 4 3 2 1 1 1 1 1 1 2 1 2 2 2 2 2 2 2 3 2 2 2 1 2 3 2
2 1 3 5 6 5 5 6 2 4 3 3 4 5 5 5 6 6 6 6 6 5 5 5 4 3 2 1 1 2 1 1 1 1 1 2 1 2 2 2 2 2 2 2 3 2 3 2 3
3 4 5 7 7 5 2 6 0 2 1 1 2 2 3 4 5 6 6 6 6 6 6 5 5 4 3 3 2 1 1 1 2 2 2 1 1 1 2 2 2 2 2 2 2 2 2 3 3
7 7 5 5 4 1 1 5 2 3 2 0 1 2 3 4 4 5 6 7 6 6 6 6 5 4 4 3 3 2 2 1 1 2 1 2 1 1 2 3 2 2 2 2 2 2 2 2 2
6 8 6 6 5 2 3 3 3 3 2 1 1 2 3 3 4 4 5 6 6 7 6 6 6 5 4 4 4 3 2 2 1 1 2 1 2 2 2 2 2 2 3 3 2 2 2 1 2
5 6 6 8 8 7 2 1 2 3 2 3 3 3 3 3 4 4 4 5 6 6 6 6 6 5 5 4 4 3 2 2 1 1 2 1 1 1 1 2 2 2 2 3 3 2 2 2 3
5 4 5 7 6 6 4 3 1 2 1 1 1 2 2 3 4 4 4 4 5 6 6 6 6 5 5 4 4 3 3 2 2 2 1 1 2 2 2 2 2 2 2 2 3 3 2 2 2
6 6 6 6 7 8 7 2 4 1 1 1 1 1 2 3 4 4 4 4 5 5 6 6 6 5 4 3 3 2 2 2 2 2 1 1 1 1 2 2 2 2 2 2 3 3 3 3 3
7 7 8 7 6 7 8 2 4 1 1 1 1 1 2 2 3 3 4 4 4 4 5 5 5 5 4 4 4 3 3 2 2 2 2 1 2 2 1 2 2 3 3 3 3 4 4 4 4
Wind_Direction
179 184 209 237 235 107 66 63 61 63 62 56 56 52 55 45 35 61 78 81 85 93 98 112 97 95 95 106 104 103 107 110 112 117 124 128 134 132 126 128 129 134 142 148 153 156 162 166 167
175 184 230 241 293 73 69 62 64 61 75 84 79 73 71 66 56 78 92 84 96 95 97 93 97 99 101 105 107 104 104 105 107 109 113 121 128 121 117 117 121 129 141 148 151 156 162 166 168
183 224 258 261 46 52 68 65 72 82 82 74 80 63 56 60 64 75 85 105 104 93 93 91 97 100 103 102 104 107 105 102 101 99 97 107 115 115 117 121 121 126 138 147 151 157 162 164 164
216 226 234 33 66 59 65 74 83 97 86 71 80 82 75 54 54 84 106 111 102 97 93 93 92 94 97 95 92 103 100 96 96 97 96 98 104 106 110 112 115 122 131 138 149 155 161 168 172
238 253 199 79 69 67 70 79 84 77 73 74 77 86 84 72 84 102 111 108 94 88 86 94 94 94 94 89 89 99 97 95 96 94 95 98 101 101 101 99 109 118 126 132 140 154 169 173 179
244 246 60 72 76 77 83 92 89 78 82 84 86 92 86 95 98 102 101 92 84 81 84 98 113 107 104 94 90 92 85 88 96 97 99 94 91 90 90 91 102 106 119 132 146 171 183 187 194
293 354 63 72 79 79 75 78 69 78 79 70 69 86 102 103 102 108 102 93 85 83 83 86 116 129 136 115 95 99 94 91 95 95 95 99 101 100 101 103 101 97 105 136 163 176 191 197 204
301 288 81 73 74 75 85 92 72 70 79 79 58 71 97 113 117 117 111 99 85 77 77 80 83 88 119 122 116 112 98 93 114 105 95 117 143 150 155 156 110 92 88 110 137 154 184 199 210
262 269 64 55 58 76 98 107 97 92 99 91 70 66 93 120 127 125 117 107 93 78 70 72 77 83 85 97 117 146 144 136 166 141 135 179 149 136 153 90 92 89 90 115 127 163 185 207 201
270 43 57 46 45 71 97 93 106 125 114 107 102 97 112 129 134 128 113 104 99 82 73 75 71 73 78 82 103 100 111 110 105 58 85 110 100 87 75 113 125 137 143 169 168 204 210 227 196
15 45 58 64 58 66 92 95 103 107 90 94 117 125 133 133 131 124 108 96 92 86 69 77 82 67 52 70 75 68 68 86 106 90 98 100 69 149 122 129 146 173 192 192 168 210 232 241 341
78 63 55 65 73 78 81 91 88 60 61 83 111 127 135 137 132 117 106 102 95 81 75 67 72 71 45 25 53 79 88 81 76 88 26 61 51 14 40 30 14 278 95 33 318 336 51 346 286
92 76 71 82 100 88 91 85 82 81 88 106 118 129 134 135 128 115 101 96 92 92 85 85 73 75 82 67 347 58 59 47 80 68 66 11 7 10 31 6 331 330 356 220 201 12 54 323 268
63 85 97 101 104 102 98 100 104 99 118 123 130 136 136 131 123 116 113 112 105 94 89 89 94 96 81 89 81 42 55 67 46 63 54 8 12 9 333 325 335 340 359 358 316 342 277 277 313
162 154 131 113 113 107 161 109 98 120 137 138 141 139 139 137 135 134 125 125 114 113 96 90 100 106 105 86 89 90 48 74 60 66 59 18 17 13 339 354 323 8 0 354 300 308 241 228 236
206 197 135 114 123 128 256 86 106 142 156 152 150 150 158 153 154 149 137 130 115 107 108 104 89 101 108 83 41 47 33 48 55 56 54 33 18 5 339 348 9 353 327 338 5 256 298 352 315
194 159 97 122 141 166 247 79 118 157 173 169 166 165 174 167 169 162 155 146 129 123 127 120 92 84 90 100 116 102 84 46 35 47 30 33 16 7 339 354 10 321 346 340 328 40 323 330 318
15 3 87 104 132 215 237 111 139 171 190 188 178 178 183 186 181 171 167 152 143 139 139 133 133 112 121 137 150 157 82 83 58 62 48 25 11 9 338 345 4 327 358 6 7 353 346 320 306
309 308 319 40 113 254 253 257 200 185 199 200 192 187 191 193 182 173 169 164 161 155 156 162 151 136 194 208 288 263 106 66 63 62 49 24 9 13 349 348 4 332 9 353 344 323 335 332 322
256 258 246 162 180 269 271 262 222 197 210 212 208 202 202 196 188 180 173 173 175 168 171 177 177 164 203 87 330 306 348 13 54 14 40 13 13 356 359 359 340 357 339 357 350 321 321 337 333
253 268 283 283 238 233 260 226 198 183 202 207 214 215 213 207 201 188 180 182 178 176 179 182 175 158 165 219 227 125 172 245 85 47 40 17 10 14 1 0 345 344 325 1 329 317 308 313 313
259 300 271 252 258 245 269 284 165 177 190 201 212 211 210 207 205 194 182 182 184 182 174 178 178 178 168 208 240 269 320 1 20 359 27 16 11 358 3 356 345 329 337 354 309 360 310 302 303
313 279 247 252 263 269 239 273 134 158 201 206 206 206 209 208 199 192 190 184 186 180 176 175 174 171 171 198 226 257 300 347 3 8 24 350 25 357 357 2 348 336 333 345 334 340 315 303 304
189 209 219 234 248 256 284 280 22 106 294 219 186 189 194 195 191 191 187 181 183 179 179 180 170 171 173 176 179 220 295 322 342 351 348 329 27 22 16 4 351 335 342 337 321 315 307 320 321
226 249 247 235 233 266 87 271 32 50 40 276 191 165 169 180 184 184 183 185 187 188 184 180 170 175 174 175 184 199 223 232 261 293 326 317 343 21 16 2 348 337 333 319 313 304 318 316 307
240 268 284 299 309 314 217 267 67 53 66 92 129 138 151 171 177 177 182 184 186 188 183 181 179 185 185 186 192 203 216 232 221 253 302 313 327 1 6 346 343 340 327 324 320 308 308 310 293
243 254 290 284 276 277 268 169 150 126 117 109 119 128 141 155 160 166 170 175 179 183 181 183 184 187 193 195 192 193 207 244 269 260 260 289 313 316 346 329 333 341 344 330 308 323 322 312 290
276 279 258 271 289 286 272 243 196 165 157 136 129 124 133 148 149 145 153 164 168 172 171 178 181 187 192 196 200 184 196 211 226 251 307 315 314 323 310 310 317 324 328 323 312 306 322 298 297
208 227 251 272 286 290 295 334 59 137 198 184 148 120 138 157 153 144 143 148 158 167 172 177 180 186 189 191 191 200 201 204 208 217 230 246 279 294 293 299 305 307 310 311 304 305 308 293 292
252 252 249 262 271 272 287 344 90 106 145 137 108 104 111 145 149 144 141 143 156 170 177 180 186 189 189 185 189 194 201 205 209 205 222 235 254 264 275 290 293 292 301 302 297 297 298 293 292